Location: Staunton
(38.1490°N, 79.0720°W)
Time: 14:54:10
(UTC-04:00)

ISS - Pass Details

Date: 18 July 2019
Orbit: 409 x 418 km, 51.6° (Epoch: 20 July)

Event Time Altitude Azimuth Distance (km) Brightness Sun altitude
Rises 03:18:38 0° 318° (NW) 2,344 0.3 -24.8°
Reaches altitude 10° 03:21:11 10° 338° (NNW) 1,479 -0.5 -24.6°
Maximum altitude 03:23:36 19° 25° (NNE) 1,066 -0.9 -24.3°
Drops below altitude 10° 03:26:00 10° 72° (ENE) 1,472 -0.4 -24.1°
Sets 03:28:31 0° 92° (E) 2,330 0.4 -23.8°
